Weather History for KBRD - October, 2014

Change the Weather History Date:

Saturday, October 11, 2014

  Actual Average Record
Temperature  
Mean Temperature 40 °F -  
Max Temperature 55 °F 58 °F 79 °F (2010)
Min Temperature 24 °F 35 °F 19 °F (1987)
Degree Days  
Heating Degree Days 26    
Moisture  
Dew Point 28 °F    
Average Humidity 66    
Maximum Humidity 96    
Minimum Humidity 35    
Precipitation  
Precipitation 0.00 in - - ()
Sea Level Pressure  
Sea Level Pressure 30.14 in    
Wind  
Wind Speed 5 mph (South)    
Max Wind Speed 21 mph    
Max Gust Speed 26 mph    
Visibility 10 miles    
Events      
Averages and records for this station are not official NWS values.
T = Trace of Precipitation, MM = Missing Value Source: NWS Daily Summary

Daily Weather History Graph

Daily Weather History Graph

Search for Another Location

Airport or City:

Trip Planner

Search our weather history database for the weather conditions in past years. The results will help you decide how hot, cold, wet, or windy it might be!

Date:

Astronomy

Oct. 11, 2014 Rise Set
Actual Time 7:28 AM CDT 6:37 PM CDT
Civil Twilight 6:58 AM CDT 7:07 PM CDT
Nautical Twilight 6:23 AM CDT 7:42 PM CDT
Astronomical Twilight 5:48 AM CDT 8:17 PM CDT
Moon 8:54 PM CDT (10/11) 11:03 AM CDT (10/11)
Length of Visible Light 12h 09m
Length of Day
11h 08m
Waning Gibbous, 87% of the Moon is Illuminated
Oct 11
Waning Gibbous
Oct 15
Last Quarter
Oct 23
New
Oct 30
First Quarter
Nov 6
Full

Hourly Weather History & Observations

Time (CDT) Temp. Windchill Dew Point Humidity Pressure Visibility Wind Dir Wind Speed Gust Speed Precip Events Conditions
12:53 AM 27.0 °F - 25.0 °F 92% 30.25 in 10.0 mi Calm Calm - N/A   Clear
1:53 AM 26.1 °F 21.9 °F 25.0 °F 96% 30.26 in 10.0 mi South 3.5 mph - N/A   Clear
2:53 AM 26.1 °F - 24.1 °F 92% 30.25 in 10.0 mi Calm Calm - N/A   Clear
3:53 AM 27.0 °F - 26.1 °F 96% 30.24 in 8.0 mi Calm Calm - N/A   Clear
4:53 AM 25.0 °F - 24.1 °F 96% 30.23 in 8.0 mi Calm Calm - N/A   Clear
5:53 AM 24.1 °F - 23.0 °F 96% 30.23 in 10.0 mi Calm Calm - N/A   Clear
6:53 AM 26.1 °F - 24.1 °F 92% 30.24 in 9.0 mi Calm Calm - N/A   Clear
7:53 AM 25.0 °F 19.3 °F 24.1 °F 96% 30.24 in 10.0 mi South 4.6 mph - N/A   Clear
8:53 AM 33.1 °F - 30.0 °F 89% 30.25 in 10.0 mi Calm Calm - N/A   Clear
9:53 AM 42.1 °F 37.7 °F 33.1 °F 70% 30.24 in 10.0 mi South 6.9 mph - N/A   Clear
10:53 AM 48.0 °F - 32.0 °F 54% 30.23 in 10.0 mi South 10.4 mph - N/A   Clear
11:53 AM 51.1 °F - 30.0 °F 44% 30.21 in 10.0 mi SSW 15.0 mph - N/A   Clear
12:53 PM 53.1 °F - 30.0 °F 41% 30.19 in 10.0 mi SSW 12.7 mph 25.3 mph N/A   Clear
1:53 PM 55.0 °F - 30.0 °F 38% 30.16 in 10.0 mi South 20.7 mph - N/A   Clear
2:53 PM 55.9 °F - 30.0 °F 37% 30.12 in 10.0 mi South 19.6 mph 26.5 mph N/A   Clear
3:53 PM 55.0 °F - 28.0 °F 35% 30.09 in 10.0 mi South 20.7 mph 25.3 mph N/A   Clear
4:53 PM 55.0 °F - 28.0 °F 35% 30.06 in 10.0 mi SSW 15.0 mph 21.9 mph N/A   Clear
5:53 PM 52.0 °F - 30.0 °F 43% 30.04 in 10.0 mi South 9.2 mph - N/A   Clear
6:53 PM 46.9 °F - 30.0 °F 52% 30.03 in 10.0 mi SSE 6.9 mph - N/A   Clear
7:53 PM 46.0 °F 41.0 °F 30.0 °F 54% 30.01 in 10.0 mi SSE 10.4 mph - N/A   Clear
8:53 PM 45.0 °F 40.6 °F 30.0 °F 56% 30.00 in 10.0 mi South 8.1 mph - N/A   Clear
9:53 PM 45.0 °F 38.9 °F 30.0 °F 56% 29.98 in 10.0 mi South 12.7 mph - N/A   Clear
10:53 PM 44.1 °F 38.6 °F 30.0 °F 58% 29.96 in 10.0 mi South 10.4 mph - N/A   Clear
11:53 PM 42.1 °F 36.6 °F 30.0 °F 62% 29.94 in 10.0 mi South 9.2 mph - N/A   Clear